Year,Month,Day,Hour,Minute,Value (Times are PST for windspeed in km/hr)
2007,12,24,00,00,0.00
2007,12,24,00,01,0.00
2007,12,24,00,02,0.00
2007,12,24,00,03,0.70
2007,12,24,00,04,1.90
2007,12,24,00,05,2.30
2007,12,24,00,06,0.00
2007,12,24,00,07,0.00
2007,12,24,00,08,0.00
2007,12,24,00,09,0.10
2007,12,24,00,10,0.00
2007,12,24,00,11,0.00
2007,12,24,00,12,0.70
2007,12,24,01,02,0.00
2007,12,24,01,03,3.20
2007,12,24,01,04,2.60
2007,12,24,01,05,2.40
2007,12,24,01,06,4.70
2007,12,24,01,07,3.50
2007,12,24,01,08,4.70
2007,12,24,01,09,8.10
2007,12,24,01,10,8.40
2007,12,24,01,11,6.00
2007,12,24,01,12,8.20
2007,12,24,01,13,6.60
2007,12,24,01,14,1.50
2007,12,24,01,15,4.80
2007,12,24,01,16,7.50
2007,12,24,01,17,2.30
2007,12,24,01,18,6.40
2007,12,24,01,19,2.90
2007,12,24,01,20,2.90
2007,12,24,01,21,8.10
2007,12,24,01,22,6.20
2007,12,24,01,23,5.80
2007,12,24,01,24,6.30
2007,12,24,01,25,3.40
2007,12,24,01,26,6.30
2007,12,24,01,27,3.60
2007,12,24,01,28,4.90
2007,12,24,01,29,1.90
2007,12,24,01,30,8.40
2007,12,24,01,31,3.80
2007,12,24,01,32,2.60
2007,12,24,01,33,2.70
2007,12,24,01,34,5.20
2007,12,24,01,35,5.10
2007,12,24,01,36,1.80
2007,12,24,01,37,0.10
2007,12,24,01,38,1.50
2007,12,24,01,39,0.00
2007,12,24,01,40,0.00
2007,12,24,01,41,4.30
2007,12,24,01,42,7.40
2007,12,24,01,43,4.20
2007,12,24,01,44,3.80
2007,12,24,01,45,6.90
2007,12,24,01,46,10.10
2007,12,24,01,47,3.60
2007,12,24,01,48,3.20
2007,12,24,01,49,3.20
2007,12,24,01,50,8.60
2007,12,24,01,51,6.50
2007,12,24,01,52,3.10
2007,12,24,01,53,1.40
2007,12,24,01,54,1.70
2007,12,24,01,55,10.70
2007,12,24,01,56,7.80
2007,12,24,01,57,5.30
2007,12,24,01,58,2.80
2007,12,24,01,59,1.80
2007,12,24,02,00,3.40
2007,12,24,02,01,13.10
2007,12,24,02,02,7.40
2007,12,24,02,03,13.90
2007,12,24,02,04,4.90
2007,12,24,02,05,8.30
2007,12,24,02,06,12.80
2007,12,24,02,07,12.80
2007,12,24,02,08,9.60
2007,12,24,02,09,11.40
2007,12,24,02,10,5.90
2007,12,24,02,11,11.20
2007,12,24,02,12,3.20
2007,12,24,02,13,0.80
2007,12,24,02,14,2.90
2007,12,24,02,15,6.30
2007,12,24,02,16,2.00
2007,12,24,02,17,4.00
2007,12,24,02,18,15.80
2007,12,24,02,19,8.90
2007,12,24,02,20,6.00
2007,12,24,02,21,0.40
2007,12,24,02,22,1.10
2007,12,24,02,23,0.60
2007,12,24,02,24,5.40
2007,12,24,02,25,5.30
2007,12,24,02,26,5.20
2007,12,24,02,27,2.60
2007,12,24,02,28,4.10
2007,12,24,02,29,7.00
2007,12,24,02,30,2.30
2007,12,24,02,31,2.70
2007,12,24,02,32,2.90
2007,12,24,02,33,1.90
2007,12,24,02,34,3.50
2007,12,24,02,35,2.60
2007,12,24,02,36,6.00
2007,12,24,02,37,1.20
2007,12,24,02,38,5.00
2007,12,24,02,39,2.00
2007,12,24,02,40,5.40
2007,12,24,02,41,5.00
2007,12,24,02,42,5.90
2007,12,24,02,43,3.20
2007,12,24,02,44,3.20
2007,12,24,02,45,1.00
2007,12,24,02,46,0.30
2007,12,24,02,47,4.20
2007,12,24,02,48,7.90
2007,12,24,02,49,12.90
2007,12,24,02,50,10.50
2007,12,24,02,51,4.40
2007,12,24,02,52,1.40
2007,12,24,02,53,9.70
2007,12,24,02,54,2.90
2007,12,24,02,55,3.90
2007,12,24,02,56,6.50
2007,12,24,02,57,8.20
2007,12,24,02,58,13.80
2007,12,24,02,59,2.80
2007,12,24,03,00,7.40
2007,12,24,03,01,8.50
2007,12,24,03,02,6.40
2007,12,24,03,03,8.30
2007,12,24,03,04,5.50
2007,12,24,03,05,7.50
2007,12,24,03,06,14.40
2007,12,24,03,07,11.50
2007,12,24,03,08,11.00
2007,12,24,03,09,12.80
2007,12,24,03,10,11.00
2007,12,24,03,11,7.20
2007,12,24,03,12,9.10
2007,12,24,03,13,8.10
2007,12,24,03,14,8.30
2007,12,24,03,15,5.90
2007,12,24,03,16,5.90
2007,12,24,03,17,17.30
2007,12,24,03,18,6.20
2007,12,24,03,19,5.30
2007,12,24,03,20,4.50
2007,12,24,03,21,2.60
2007,12,24,03,22,3.40
2007,12,24,03,23,5.30
2007,12,24,03,24,1.90
2007,12,24,03,25,10.30
2007,12,24,03,26,13.60
2007,12,24,03,27,6.50
2007,12,24,03,28,6.60
2007,12,24,03,29,6.60
2007,12,24,03,30,8.50
2007,12,24,03,31,7.90
2007,12,24,03,32,8.30
2007,12,24,03,33,7.10
2007,12,24,03,34,3.20
2007,12,24,03,35,12.40
2007,12,24,03,36,7.20
2007,12,24,03,37,7.60
2007,12,24,03,38,7.30
2007,12,24,03,39,8.60
2007,12,24,03,40,5.20
2007,12,24,03,41,2.50
2007,12,24,03,42,5.50
2007,12,24,03,43,4.00
2007,12,24,03,44,6.40
2007,12,24,03,45,1.60
2007,12,24,03,46,3.40
2007,12,24,03,47,5.20
2007,12,24,03,48,3.00
2007,12,24,03,49,3.90
2007,12,24,03,50,1.00
2007,12,24,03,51,5.50
2007,12,24,03,52,6.50
2007,12,24,03,53,3.70
2007,12,24,03,54,6.50
2007,12,24,03,55,4.30
2007,12,24,03,56,7.10
2007,12,24,03,57,7.60
2007,12,24,03,58,10.20
2007,12,24,03,59,3.50
2007,12,24,04,00,1.70
2007,12,24,04,01,4.30
2007,12,24,04,02,4.70
2007,12,24,04,03,1.70
2007,12,24,04,04,2.00
2007,12,24,04,05,2.80
2007,12,24,04,06,8.20
2007,12,24,04,07,3.70
2007,12,24,04,08,1.70
2007,12,24,04,09,0.90
2007,12,24,04,10,2.10
2007,12,24,04,11,0.50
2007,12,24,04,12,0.00
2007,12,24,04,13,0.50
2007,12,24,04,14,1.60
2007,12,24,04,15,5.60
2007,12,24,04,16,2.20
2007,12,24,04,17,3.90
2007,12,24,04,18,3.00
2007,12,24,04,19,0.80
2007,12,24,04,20,0.70
2007,12,24,04,21,5.90
2007,12,24,04,22,4.30
2007,12,24,04,23,3.20
2007,12,24,04,24,4.50
2007,12,24,04,25,3.60
2007,12,24,04,26,2.10
2007,12,24,04,27,3.70
2007,12,24,04,28,4.00
2007,12,24,04,29,0.10
2007,12,24,04,30,0.30
2007,12,24,04,31,0.90
2007,12,24,04,32,1.30
2007,12,24,04,33,0.30
2007,12,24,04,34,0.00
2007,12,24,04,35,2.00
2007,12,24,04,36,6.10
2007,12,24,04,37,3.40
2007,12,24,04,38,2.90
2007,12,24,04,39,2.90
2007,12,24,04,40,1.00
2007,12,24,04,41,0.40
2007,12,24,04,42,6.50
2007,12,24,04,43,5.20
2007,12,24,04,44,8.20
2007,12,24,04,45,5.80
2007,12,24,04,46,4.50
2007,12,24,04,47,2.60
2007,12,24,04,48,0.90
2007,12,24,04,49,1.40
2007,12,24,04,50,6.60
2007,12,24,04,51,8.30
2007,12,24,04,52,10.10
2007,12,24,04,53,11.20
2007,12,24,04,54,12.10
2007,12,24,04,55,5.80
2007,12,24,04,56,6.00
2007,12,24,04,57,5.40
2007,12,24,04,58,5.70
2007,12,24,04,59,5.70
2007,12,24,05,00,4.00
2007,12,24,05,01,3.80
2007,12,24,05,02,3.50
2007,12,24,05,03,2.50
2007,12,24,05,04,4.90
2007,12,24,05,05,4.10
2007,12,24,05,06,8.60
2007,12,24,05,07,4.30
2007,12,24,05,08,2.40
2007,12,24,05,09,2.50
2007,12,24,05,10,9.20
2007,12,24,05,11,5.90
2007,12,24,05,12,1.70
2007,12,24,05,13,5.90
2007,12,24,05,14,8.90
2007,12,24,05,15,2.20
2007,12,24,05,16,10.30
2007,12,24,05,17,5.00
2007,12,24,05,18,5.60
2007,12,24,05,19,8.00
2007,12,24,05,20,5.30
2007,12,24,05,21,6.30
2007,12,24,05,22,7.30
2007,12,24,05,23,5.20
2007,12,24,05,24,4.60
2007,12,24,05,25,7.60
2007,12,24,05,26,2.60
2007,12,24,05,27,2.20
2007,12,24,05,28,2.30
2007,12,24,05,29,0.70
2007,12,24,05,30,3.60
2007,12,24,05,31,8.30
2007,12,24,05,32,7.90
2007,12,24,05,33,2.80
2007,12,24,05,34,6.60
2007,12,24,05,35,2.00
2007,12,24,05,36,2.10
2007,12,24,05,37,2.80
2007,12,24,05,38,5.20
2007,12,24,05,39,6.90
2007,12,24,05,40,6.20
2007,12,24,05,41,4.60
2007,12,24,05,42,7.10
2007,12,24,05,43,9.30
2007,12,24,05,44,2.50
2007,12,24,05,45,6.00
2007,12,24,05,46,5.50
2007,12,24,05,47,6.20
2007,12,24,05,48,3.20
2007,12,24,05,49,0.20
2007,12,24,05,50,7.50
2007,12,24,05,51,4.90
2007,12,24,05,52,14.40
2007,12,24,05,53,3.60
2007,12,24,05,54,3.60
2007,12,24,05,55,4.30
2007,12,24,05,56,4.60
2007,12,24,05,57,3.30
2007,12,24,05,58,6.10
2007,12,24,05,59,8.00
2007,12,24,06,00,4.50
2007,12,24,06,01,3.40
2007,12,24,06,02,3.50
2007,12,24,06,03,4.40
2007,12,24,06,04,5.00
2007,12,24,06,05,3.30
2007,12,24,06,06,2.20
2007,12,24,06,07,7.90
2007,12,24,06,08,4.60
2007,12,24,06,09,7.90
2007,12,24,06,10,8.30
2007,12,24,06,11,3.70
2007,12,24,06,12,3.70
2007,12,24,06,13,6.50
2007,12,24,06,14,5.00
2007,12,24,06,15,9.90
2007,12,24,06,16,3.70
2007,12,24,06,17,0.30
2007,12,24,06,18,1.90
2007,12,24,06,19,4.60
2007,12,24,06,20,1.50
2007,12,24,06,21,4.40
2007,12,24,06,22,5.00
2007,12,24,06,23,6.30
2007,12,24,06,24,1.80
2007,12,24,06,25,4.50
2007,12,24,06,26,1.40
2007,12,24,06,27,0.70
2007,12,24,06,28,6.80
2007,12,24,06,29,7.80
2007,12,24,06,30,4.30
2007,12,24,06,31,12.60
2007,12,24,06,32,5.00
2007,12,24,06,33,2.20
2007,12,24,06,34,7.20
2007,12,24,06,35,2.70
2007,12,24,06,36,0.40
2007,12,24,06,37,2.10
2007,12,24,06,38,4.80
2007,12,24,06,39,4.90
2007,12,24,06,40,4.20
2007,12,24,06,41,2.80
2007,12,24,06,42,3.80
2007,12,24,06,43,1.40
2007,12,24,06,44,2.30
2007,12,24,06,45,4.60
2007,12,24,06,46,2.20
2007,12,24,06,47,5.90
2007,12,24,06,48,2.10
2007,12,24,06,49,3.90
2007,12,24,06,50,4.10
2007,12,24,06,51,2.10
2007,12,24,06,52,1.50
2007,12,24,06,53,2.30
2007,12,24,06,54,2.70
2007,12,24,06,55,5.30
2007,12,24,06,56,0.70
2007,12,24,06,57,6.40
2007,12,24,06,58,4.20
2007,12,24,06,59,6.50
2007,12,24,07,00,5.80
2007,12,24,07,01,7.10
2007,12,24,07,02,4.00
2007,12,24,07,03,3.40
2007,12,24,07,04,2.10
2007,12,24,07,05,6.20
2007,12,24,07,06,0.80
2007,12,24,07,07,2.60
2007,12,24,07,08,2.80
2007,12,24,07,09,5.70
2007,12,24,07,10,2.30
2007,12,24,07,11,0.30
2007,12,24,07,12,3.20
2007,12,24,07,13,3.60
2007,12,24,07,14,4.20
2007,12,24,07,15,8.10
2007,12,24,07,16,7.00
2007,12,24,07,17,1.90
2007,12,24,07,18,1.60
2007,12,24,07,19,1.70
2007,12,24,07,20,3.50
2007,12,24,07,21,0.30
2007,12,24,07,22,1.00
2007,12,24,07,23,0.10
2007,12,24,07,24,0.30
2007,12,24,07,25,0.10
2007,12,24,07,26,2.60
2007,12,24,07,27,0.70
2007,12,24,07,28,1.20
2007,12,24,07,29,1.30
2007,12,24,07,30,0.20
2007,12,24,07,31,1.80
2007,12,24,07,32,0.00
2007,12,24,07,33,1.10
2007,12,24,07,34,1.80
2007,12,24,07,35,0.70
2007,12,24,07,36,0.70
2007,12,24,07,37,2.50
2007,12,24,07,38,1.80
2007,12,24,07,39,0.10
2007,12,24,07,40,0.00
2007,12,24,07,41,0.00
2007,12,24,07,42,0.10
2007,12,24,07,43,0.00
2007,12,24,07,44,0.30
2007,12,24,07,45,0.00
2007,12,24,07,46,0.50
2007,12,24,07,47,0.20
2007,12,24,07,48,1.10
2007,12,24,07,49,0.00
2007,12,24,07,50,0.00
2007,12,24,07,51,0.00
2007,12,24,07,52,0.00
2007,12,24,07,53,0.70
2007,12,24,07,54,0.00
2007,12,24,07,55,0.80
2007,12,24,07,56,0.00
2007,12,24,07,57,1.10
2007,12,24,07,58,1.80
2007,12,24,07,59,0.00
2007,12,24,08,00,0.00
2007,12,24,08,01,0.00
2007,12,24,08,02,0.00
2007,12,24,08,03,0.00
2007,12,24,08,04,0.00
2007,12,24,08,05,0.00
2007,12,24,08,06,0.00
2007,12,24,08,07,1.50
2007,12,24,08,08,2.30
2007,12,24,08,09,2.20
2007,12,24,08,10,2.00
2007,12,24,08,11,1.40
2007,12,24,08,12,0.00
2007,12,24,08,13,0.00
2007,12,24,08,14,0.00
2007,12,24,08,15,0.00
2007,12,24,08,16,0.00
2007,12,24,08,17,0.00
2007,12,24,08,18,0.00
2007,12,24,08,19,0.00
2007,12,24,08,20,0.00
2007,12,24,08,21,0.00
2007,12,24,08,22,0.00
2007,12,24,08,23,0.00
2007,12,24,08,24,0.00
2007,12,24,08,25,0.00
2007,12,24,08,26,0.00
2007,12,24,08,27,0.00
2007,12,24,08,28,0.20
2007,12,24,08,29,0.60
2007,12,24,08,30,0.30
2007,12,24,08,31,2.10
2007,12,24,08,32,1.80
2007,12,24,08,33,1.50
2007,12,24,08,34,1.20
2007,12,24,08,35,1.20
2007,12,24,08,36,0.00
2007,12,24,08,37,0.80
2007,12,24,08,38,0.70
2007,12,24,08,39,2.00
2007,12,24,08,40,1.00
2007,12,24,08,41,0.00
2007,12,24,08,42,0.00
2007,12,24,08,43,1.90
2007,12,24,08,44,0.50
2007,12,24,08,45,0.80
2007,12,24,08,46,1.40
2007,12,24,08,47,0.40
2007,12,24,08,48,1.00
2007,12,24,08,49,2.90
2007,12,24,08,50,1.20
2007,12,24,08,51,0.00
2007,12,24,08,52,0.10
2007,12,24,08,53,0.00
2007,12,24,08,54,0.00
2007,12,24,08,55,0.00
2007,12,24,08,56,0.00
2007,12,24,08,57,0.00
2007,12,24,08,58,0.00
2007,12,24,08,59,0.00
2007,12,24,09,00,0.00
2007,12,24,09,01,2.90
2007,12,24,09,02,0.10
2007,12,24,09,03,0.00
2007,12,24,09,04,0.30
2007,12,24,09,05,0.70
2007,12,24,09,06,0.50
2007,12,24,09,07,0.00
2007,12,24,09,08,0.00
2007,12,24,09,09,0.30
2007,12,24,09,10,0.00
2007,12,24,09,11,0.00
2007,12,24,09,12,1.10
2007,12,24,09,13,0.40
2007,12,24,09,14,0.00
2007,12,24,09,15,0.00
2007,12,24,09,16,0.30
2007,12,24,09,17,0.70
2007,12,24,09,18,3.40
2007,12,24,09,19,3.20
2007,12,24,09,20,0.00
2007,12,24,09,21,1.00
2007,12,24,09,22,1.20
2007,12,24,09,23,3.50
2007,12,24,09,24,4.00
2007,12,24,09,25,2.60
2007,12,24,09,26,0.90
2007,12,24,09,27,0.00
2007,12,24,09,28,0.80
2007,12,24,09,29,0.60
2007,12,24,09,30,0.00
2007,12,24,09,31,0.00
2007,12,24,09,32,0.70
2007,12,24,09,33,1.70
2007,12,24,09,34,1.50
2007,12,24,09,35,1.70
2007,12,24,09,36,2.70
2007,12,24,09,37,0.60
2007,12,24,09,38,0.70
2007,12,24,09,39,2.10
2007,12,24,09,40,4.50
2007,12,24,09,41,5.20
2007,12,24,09,42,2.20
2007,12,24,09,43,0.00
2007,12,24,09,44,1.10
2007,12,24,09,45,0.40
2007,12,24,09,46,0.00
2007,12,24,09,47,1.20
2007,12,24,09,48,0.50
2007,12,24,09,49,0.10
2007,12,24,09,50,0.00
2007,12,24,09,51,0.00
2007,12,24,09,52,0.00
2007,12,24,09,53,0.00
2007,12,24,09,54,0.00
2007,12,24,09,55,0.30
2007,12,24,09,56,1.10
2007,12,24,09,57,1.00
2007,12,24,09,58,0.10
2007,12,24,09,59,0.90
2007,12,24,10,00,4.50
2007,12,24,10,01,1.60
2007,12,24,10,02,0.40
2007,12,24,10,03,0.70
2007,12,24,10,04,0.00
2007,12,24,10,05,0.00
2007,12,24,10,06,1.80
2007,12,24,10,07,1.90
2007,12,24,10,08,3.50
2007,12,24,10,09,0.10
2007,12,24,10,10,0.00
2007,12,24,10,11,0.60
2007,12,24,10,12,1.90
2007,12,24,10,13,0.50
2007,12,24,10,14,1.10
2007,12,24,10,15,1.20
2007,12,24,10,16,4.60
2007,12,24,10,17,1.30
2007,12,24,10,18,2.20
2007,12,24,10,19,2.60
2007,12,24,10,20,0.70
2007,12,24,10,21,1.50
2007,12,24,10,22,1.90
2007,12,24,10,23,0.00
2007,12,24,10,24,0.70
2007,12,24,10,25,1.30
2007,12,24,10,26,1.40
2007,12,24,10,27,0.70
2007,12,24,10,28,0.70
2007,12,24,10,29,1.30
2007,12,24,10,30,2.20
2007,12,24,10,31,0.30
2007,12,24,10,32,2.30
2007,12,24,10,33,5.20
2007,12,24,10,34,4.40
2007,12,24,10,35,4.10
2007,12,24,10,36,3.70
2007,12,24,10,37,1.50
2007,12,24,10,38,0.20
2007,12,24,10,39,2.90
2007,12,24,10,40,3.80
2007,12,24,10,41,3.50
2007,12,24,10,42,3.30
2007,12,24,10,43,7.20
2007,12,24,10,44,4.60
2007,12,24,10,45,2.20
2007,12,24,10,46,2.40
2007,12,24,10,47,0.70
2007,12,24,10,48,0.80
2007,12,24,10,49,2.90
2007,12,24,10,50,3.00
2007,12,24,10,51,3.30
2007,12,24,10,52,6.70
2007,12,24,10,53,3.40
2007,12,24,10,54,5.70
2007,12,24,10,55,3.80
2007,12,24,10,56,3.30
2007,12,24,10,57,3.90
2007,12,24,10,58,5.70
2007,12,24,10,59,5.40
2007,12,24,11,00,5.00
2007,12,24,11,01,1.20
2007,12,24,11,02,3.40
2007,12,24,11,03,1.80
2007,12,24,11,04,2.70
2007,12,24,11,05,3.20
2007,12,24,11,06,4.90
2007,12,24,11,07,1.00
2007,12,24,11,08,2.10
2007,12,24,11,09,4.70
2007,12,24,11,10,10.60
2007,12,24,11,11,9.90
2007,12,24,11,12,8.60
2007,12,24,11,13,6.60
2007,12,24,11,14,4.20
2007,12,24,11,15,7.30
2007,12,24,11,16,6.10
2007,12,24,11,17,0.80
2007,12,24,11,18,2.60
2007,12,24,11,19,3.30
2007,12,24,11,20,0.80
2007,12,24,11,21,2.00
2007,12,24,11,22,7.50
2007,12,24,11,23,3.30
2007,12,24,11,24,0.30
2007,12,24,11,25,0.30
2007,12,24,11,26,2.10
2007,12,24,11,27,0.90
2007,12,24,11,28,4.20
2007,12,24,11,29,4.50
2007,12,24,11,30,5.00
2007,12,24,11,31,2.30
2007,12,24,11,32,3.00
2007,12,24,11,33,2.90
2007,12,24,11,34,1.40
2007,12,24,11,35,3.40
2007,12,24,11,36,1.70
2007,12,24,11,37,1.90
2007,12,24,11,38,1.80
2007,12,24,11,39,7.50
2007,12,24,11,40,4.60
2007,12,24,11,41,5.20
2007,12,24,11,42,7.40
2007,12,24,11,43,7.60
2007,12,24,11,44,6.90
2007,12,24,11,45,3.20
2007,12,24,11,46,3.90
2007,12,24,11,47,1.80
2007,12,24,11,48,0.60
2007,12,24,11,49,1.00
2007,12,24,11,50,1.00
2007,12,24,11,51,2.10
2007,12,24,11,52,1.40
2007,12,24,11,53,1.10
2007,12,24,11,54,3.50
2007,12,24,11,55,3.60
2007,12,24,11,56,4.20
2007,12,24,11,57,1.70
2007,12,24,11,58,1.00
2007,12,24,11,59,0.10
2007,12,24,12,00,1.30
2007,12,24,12,01,5.90
2007,12,24,12,02,5.00
2007,12,24,12,03,2.70
2007,12,24,12,04,2.60
2007,12,24,12,05,1.40
2007,12,24,12,06,4.40
2007,12,24,12,07,4.80
2007,12,24,12,08,4.10
2007,12,24,12,09,1.80
2007,12,24,12,10,1.90
2007,12,24,12,11,1.60
2007,12,24,12,12,2.60
2007,12,24,12,13,3.20
2007,12,24,12,14,2.30
2007,12,24,12,15,4.10
2007,12,24,12,16,2.00
2007,12,24,12,17,1.80
2007,12,24,12,18,1.70
2007,12,24,12,19,5.40
2007,12,24,12,20,4.70
2007,12,24,12,21,0.50
2007,12,24,12,22,2.40
2007,12,24,12,23,1.90
2007,12,24,12,24,3.20
2007,12,24,12,25,0.40
2007,12,24,12,26,3.20
2007,12,24,12,27,1.40
2007,12,24,12,28,3.20
2007,12,24,12,29,0.60
2007,12,24,12,30,0.40
2007,12,24,12,31,0.00
2007,12,24,12,32,1.40
2007,12,24,12,33,1.20
2007,12,24,12,34,1.40
2007,12,24,12,35,1.80
2007,12,24,12,36,0.80
2007,12,24,12,37,0.00
2007,12,24,12,38,0.90
2007,12,24,12,39,1.70
2007,12,24,12,40,0.10
2007,12,24,12,41,1.10
2007,12,24,12,42,2.70
2007,12,24,12,43,5.10
2007,12,24,12,44,2.60
2007,12,24,12,45,3.00
2007,12,24,12,46,0.00
2007,12,24,12,47,0.40
2007,12,24,12,48,3.30
2007,12,24,12,49,4.00
2007,12,24,12,50,3.10
2007,12,24,12,51,1.80
2007,12,24,12,52,0.80
2007,12,24,12,53,0.00
2007,12,24,12,54,0.80
2007,12,24,12,55,0.50
2007,12,24,12,56,1.90
2007,12,24,12,57,0.40
2007,12,24,12,58,1.50
2007,12,24,12,59,0.60
2007,12,24,13,00,3.20
2007,12,24,13,01,1.70
2007,12,24,13,02,3.20
2007,12,24,13,03,2.00
2007,12,24,13,04,0.50
2007,12,24,13,05,7.40
2007,12,24,13,06,6.60
2007,12,24,13,07,5.40
2007,12,24,13,08,4.10
2007,12,24,13,09,10.80
2007,12,24,13,10,5.60
2007,12,24,13,11,2.60
2007,12,24,13,12,8.80
2007,12,24,13,13,6.80
2007,12,24,13,14,3.80
2007,12,24,13,15,3.60
2007,12,24,13,16,6.90
2007,12,24,13,17,3.40
2007,12,24,13,18,4.30
2007,12,24,13,19,5.40
2007,12,24,13,20,7.20
2007,12,24,13,21,2.60
2007,12,24,13,22,7.20
2007,12,24,13,23,3.10
2007,12,24,13,24,4.30
2007,12,24,13,25,4.00
2007,12,24,13,26,4.70
2007,12,24,13,27,3.70
2007,12,24,13,28,1.10
2007,12,24,13,29,6.60
2007,12,24,13,30,3.00
2007,12,24,13,31,9.00
2007,12,24,13,32,4.60
2007,12,24,13,33,5.60
2007,12,24,13,34,2.40
2007,12,24,13,35,0.90
2007,12,24,13,36,1.20
2007,12,24,13,37,0.50
2007,12,24,13,38,1.90
2007,12,24,13,39,4.40
2007,12,24,13,40,4.70
2007,12,24,13,41,0.80
2007,12,24,13,42,2.90
2007,12,24,13,43,5.30
2007,12,24,13,44,5.50
2007,12,24,13,45,1.80
2007,12,24,13,46,2.20
2007,12,24,13,47,3.80
2007,12,24,13,48,1.40
2007,12,24,13,49,6.00
2007,12,24,13,50,5.10
2007,12,24,13,51,3.40
2007,12,24,13,52,2.50
2007,12,24,13,53,1.70
2007,12,24,13,54,1.00
2007,12,24,13,55,7.20
2007,12,24,13,56,1.10
2007,12,24,13,57,0.10
2007,12,24,13,58,0.00
2007,12,24,13,59,0.90
2007,12,24,14,00,2.50
2007,12,24,14,01,0.90
2007,12,24,14,02,1.30
2007,12,24,14,03,1.90
2007,12,24,14,04,2.80
2007,12,24,14,05,2.30
2007,12,24,14,06,0.10
2007,12,24,14,07,1.00
2007,12,24,14,08,1.80
2007,12,24,14,09,3.30
2007,12,24,14,10,4.80
2007,12,24,14,11,2.20
2007,12,24,14,12,1.70
2007,12,24,14,13,3.20
2007,12,24,14,14,2.60
2007,12,24,14,15,2.10
2007,12,24,14,16,3.90
2007,12,24,14,17,5.20
2007,12,24,14,18,5.90
2007,12,24,14,19,5.40
2007,12,24,14,20,3.40
2007,12,24,14,21,6.70
2007,12,24,14,22,2.10
2007,12,24,14,23,1.40
2007,12,24,14,24,0.90
2007,12,24,14,25,0.20
2007,12,24,14,26,0.10
2007,12,24,14,27,0.00
2007,12,24,14,28,0.70
2007,12,24,14,29,1.70
2007,12,24,14,30,0.10
2007,12,24,14,31,1.10
2007,12,24,14,32,0.20
2007,12,24,14,33,2.30
2007,12,24,14,34,2.70
2007,12,24,14,35,1.20
2007,12,24,14,36,0.00
2007,12,24,14,37,0.40
2007,12,24,14,38,1.20
2007,12,24,14,39,0.10
2007,12,24,14,40,1.90
2007,12,24,14,41,0.60
2007,12,24,14,42,0.10
2007,12,24,14,43,1.20
2007,12,24,14,44,0.00
2007,12,24,14,45,0.60
2007,12,24,14,46,1.30
2007,12,24,14,47,3.50
2007,12,24,14,48,4.90
2007,12,24,14,49,4.50
2007,12,24,14,50,1.00
2007,12,24,14,51,2.60
2007,12,24,14,52,1.00
2007,12,24,14,53,0.50
2007,12,24,14,54,0.90
2007,12,24,14,55,2.80
2007,12,24,14,56,4.40
2007,12,24,14,57,3.60
2007,12,24,14,58,1.60
2007,12,24,14,59,2.10
2007,12,24,15,00,3.50
2007,12,24,15,01,5.00
2007,12,24,15,02,0.30
2007,12,24,15,03,0.70
2007,12,24,15,04,2.10
2007,12,24,15,05,3.10
2007,12,24,15,06,4.30
2007,12,24,15,07,4.50
2007,12,24,15,08,1.70
2007,12,24,15,09,0.30
2007,12,24,15,10,0.30
2007,12,24,15,11,0.90
2007,12,24,15,12,0.00
2007,12,24,15,13,1.00
2007,12,24,15,14,5.60
2007,12,24,15,15,6.30
2007,12,24,15,16,2.40
2007,12,24,15,17,3.60
2007,12,24,15,18,2.00
2007,12,24,15,19,4.10
2007,12,24,15,20,2.30
2007,12,24,15,21,0.00
2007,12,24,15,22,1.60
2007,12,24,15,23,0.10
2007,12,24,15,24,1.70
2007,12,24,15,25,1.20
2007,12,24,15,26,1.00
2007,12,24,15,27,1.70
2007,12,24,15,28,3.50
2007,12,24,15,29,1.80
2007,12,24,15,30,0.50
2007,12,24,15,31,0.30
2007,12,24,15,32,0.00
2007,12,24,15,33,0.50
2007,12,24,15,34,0.90
2007,12,24,15,35,0.00
2007,12,24,15,36,0.00
2007,12,24,15,37,1.80
2007,12,24,15,38,0.10
2007,12,24,15,39,1.70
2007,12,24,15,40,0.90
2007,12,24,15,41,1.60
2007,12,24,15,42,0.10
2007,12,24,15,43,1.20
2007,12,24,15,44,1.10
2007,12,24,15,45,3.00
2007,12,24,15,46,4.60
2007,12,24,15,47,1.70
2007,12,24,15,48,0.50
2007,12,24,15,49,0.50
2007,12,24,15,50,1.80
2007,12,24,15,51,0.10
2007,12,24,15,52,0.70
2007,12,24,15,53,0.60
2007,12,24,15,54,1.00
2007,12,24,15,55,0.20
2007,12,24,15,56,0.00
2007,12,24,15,57,0.10
2007,12,24,15,58,2.10
2007,12,24,15,59,1.00
2007,12,24,16,00,1.90
2007,12,24,16,01,0.20
2007,12,24,16,02,0.20
2007,12,24,16,03,1.60
2007,12,24,16,04,4.30
2007,12,24,16,05,1.60
2007,12,24,16,06,2.40
2007,12,24,16,07,1.20
2007,12,24,16,08,0.20
2007,12,24,16,09,0.00
2007,12,24,16,10,0.30
2007,12,24,16,11,0.90
2007,12,24,16,12,1.10
2007,12,24,16,13,0.10
2007,12,24,16,14,0.20
2007,12,24,16,15,0.00
2007,12,24,16,16,0.80
2007,12,24,16,17,1.40
2007,12,24,16,18,1.50
2007,12,24,16,19,1.70
2007,12,24,16,20,1.10
2007,12,24,16,21,1.60
2007,12,24,16,22,0.80
2007,12,24,16,23,0.80
2007,12,24,16,24,0.60
2007,12,24,16,25,0.60
2007,12,24,16,26,0.00
2007,12,24,16,27,0.00
2007,12,24,16,28,0.10
2007,12,24,16,29,0.00
2007,12,24,16,30,0.00
2007,12,24,16,31,0.00
2007,12,24,16,32,0.00
2007,12,24,16,33,0.00
2007,12,24,16,34,0.00
2007,12,24,16,35,0.00
2007,12,24,16,36,0.10
2007,12,24,16,37,0.10
2007,12,24,16,38,0.90
2007,12,24,16,39,1.90
2007,12,24,16,40,1.30
2007,12,24,16,41,0.70
2007,12,24,16,42,1.10
2007,12,24,16,43,1.00
2007,12,24,16,44,1.20
2007,12,24,16,45,1.00
2007,12,24,16,46,0.70
2007,12,24,16,47,0.00
2007,12,24,16,48,1.20
2007,12,24,16,49,0.20
2007,12,24,16,50,0.00
2007,12,24,16,51,0.50
2007,12,24,16,52,0.00
2007,12,24,16,53,0.00
2007,12,24,16,54,0.00
2007,12,24,16,55,0.40
2007,12,24,16,56,0.00
2007,12,24,16,57,0.00
2007,12,24,16,58,0.00
2007,12,24,16,59,0.80
2007,12,24,17,00,0.80
2007,12,24,17,01,0.90
2007,12,24,17,02,0.20
2007,12,24,17,03,1.00
2007,12,24,17,04,1.10
2007,12,24,17,05,1.90
2007,12,24,17,06,1.90
2007,12,24,17,07,0.20
2007,12,24,17,08,1.10
2007,12,24,17,09,0.00
2007,12,24,17,10,0.60
2007,12,24,17,11,0.80
2007,12,24,17,12,2.00
2007,12,24,17,13,0.30
2007,12,24,17,14,0.50
2007,12,24,17,15,2.40
2007,12,24,17,16,0.80
2007,12,24,17,17,1.60
2007,12,24,17,18,1.90
2007,12,24,17,19,0.50
2007,12,24,17,20,0.00
2007,12,24,17,21,0.00
2007,12,24,17,22,0.00
2007,12,24,17,23,0.00
2007,12,24,17,24,0.00
2007,12,24,17,25,0.20
2007,12,24,17,26,0.00
2007,12,24,17,27,0.00
2007,12,24,17,28,0.00
2007,12,24,17,29,0.00
2007,12,24,17,30,0.60
2007,12,24,17,31,0.00
2007,12,24,17,32,0.80
2007,12,24,17,33,1.20
2007,12,24,17,34,0.80
2007,12,24,17,35,0.90
2007,12,24,17,36,0.20
2007,12,24,17,37,0.00
2007,12,24,17,38,0.50
2007,12,24,17,39,1.50
2007,12,24,17,40,0.40
2007,12,24,17,41,0.90
2007,12,24,17,42,1.50
2007,12,24,17,43,1.10
2007,12,24,17,44,1.60
2007,12,24,17,45,1.50
2007,12,24,17,46,0.90
2007,12,24,17,47,1.10
2007,12,24,17,48,0.40
2007,12,24,17,49,1.50
2007,12,24,17,50,0.90
2007,12,24,17,51,0.80
2007,12,24,17,52,0.60
2007,12,24,17,53,0.40
2007,12,24,17,54,0.90
2007,12,24,17,55,1.70
2007,12,24,17,56,1.60
2007,12,24,17,57,1.20
2007,12,24,17,58,1.30
2007,12,24,17,59,0.90
2007,12,24,18,00,1.00
2007,12,24,18,01,1.40
2007,12,24,18,02,1.10
2007,12,24,18,03,1.40
2007,12,24,18,04,1.80
2007,12,24,18,05,1.50
2007,12,24,18,06,0.70
2007,12,24,18,07,2.20
2007,12,24,18,08,1.70
2007,12,24,18,09,2.10
2007,12,24,18,10,1.10
2007,12,24,18,11,1.40
2007,12,24,18,12,0.00
2007,12,24,18,13,0.30
2007,12,24,18,14,0.50
2007,12,24,18,15,0.70
2007,12,24,18,16,1.50
2007,12,24,18,17,0.00
2007,12,24,18,18,1.00
2007,12,24,18,19,0.40
2007,12,24,18,20,1.70
2007,12,24,18,21,1.60
2007,12,24,18,22,1.40
2007,12,24,18,23,1.70
2007,12,24,18,24,0.50
2007,12,24,18,25,2.50
2007,12,24,18,26,0.80
2007,12,24,18,27,4.20
2007,12,24,18,28,3.40
2007,12,24,18,29,2.70
2007,12,24,18,30,0.50
2007,12,24,18,31,1.70
2007,12,24,18,32,3.90
2007,12,24,18,33,4.40
2007,12,24,18,34,3.90
2007,12,24,18,35,1.90
2007,12,24,18,36,5.00
2007,12,24,18,37,2.30
2007,12,24,18,38,1.00
2007,12,24,18,39,0.10
2007,12,24,18,40,2.50
2007,12,24,18,41,2.50
2007,12,24,18,42,3.10
2007,12,24,18,43,3.90
2007,12,24,18,44,0.50
2007,12,24,18,45,3.00
2007,12,24,18,46,4.40
2007,12,24,18,47,3.20
2007,12,24,18,48,3.40
2007,12,24,18,49,1.60
2007,12,24,18,50,2.00
2007,12,24,18,51,0.60
2007,12,24,18,52,2.60
2007,12,24,18,53,3.70
2007,12,24,18,54,5.40